FW0434 Weather Reports


Display with metric or nautical units.
time (UTC)temp
F
wind
direction
speed
MPH
gust
MPH
rain 1hr
in
rain 24hr
in
rain mn
in
humidity
%
barometer
mb
20260502163016 61 242 9.0 20.0 0.00 0.00 0.00 44 1015.1
20260502161527 60 266 9.0 19.0 0.00 0.00 0.00 44 1015.3
20260502151526 55 224 9.0 17.0 0.00 0.00 0.00 52 1016.2
20260502150146 53 263 10.0 17.0 0.00 0.00 0.00 53 1016.4
20260502123031 36 217 4.0 7.0 0.00 0.00 0.00 84 1018.1
20260502121543 35 177 5.0 6.0 0.00 0.00 0.00 84 1018.3
20260502114556 32 189 0.0 2.0 0.00 0.00 0.00 85 1018.4
20260502113058 33 189 0.0 3.0 0.00 0.00 0.00 82 1018.4
20260502111516 33 254 1.0 5.0 0.00 0.00 0.00 82 1018.4
20260502110021 32 232 0.0 4.0 0.00 0.00 0.00 82 1018.5
20260502104539 33 248 0.0 3.0 0.00 0.00 0.00 81 1018.7
20260502103030 33 233 1.0 3.0 0.00 0.00 0.00 80 1018.8
20260502101540 34 257 1.0 5.0 0.00 0.00 0.00 79 1018.8
20260502100104 34 215 1.0 6.0 0.00 0.00 0.00 79 1018.9
20260502091514 35 246 6.0 8.0 0.00 0.00 0.00 79 1019.1
20260502071527 36 240 1.0 4.0 0.00 0.00 0.00 73 1019.4
20260502070028 37 246 2.0 5.0 0.00 0.00 0.00 70 1019.5
20260502064539 37 241 0.0 3.0 0.00 0.00 0.00 70 1019.6
20260502063037 37 229 0.0 2.0 0.00 0.00 0.00 71 1019.7
20260502061547 37 229 0.0 2.0 0.00 0.00 0.00 71 1019.8
20260502054512 37 224 3.0 4.0 0.00 0.00 0.00 75 1019.6
20260502053017 36 206 0.0 3.0 0.00 0.00 0.00 80 1019.7
20260502051532 36 318 0.0 0.0 0.00 0.00 0.00 79 1019.8
20260502050021 37 318 0.0 0.0 0.00 0.00 0.00 79 1019.9
20260502044537 37 318 0.0 0.0 0.00 0.00 0.00 77 1019.9
20260502043048 38 318 0.0 0.0 0.00 0.00 0.00 75 1020.0
20260502041554 39 318 0.0 0.0 0.00 0.00 0.00 72 1020.0
20260502040100 40 318 0.0 0.0 0.00 0.00 0.00 71 1020.0
20260502034529 41 318 0.0 2.0 0.00 0.00 0.00 69 1020.1
20260502033040 40 318 0.0 2.0 0.00 0.00 0.00 70 1020.1
20260502031604 40 318 0.0 2.0 0.00 0.00 0.00 69 1020.1
20260502030050 41 318 0.0 2.0 0.00 0.00 0.00 66 1020.0
20260502024600 43 318 0.0 1.0 0.00 0.00 0.00 61 1019.8
20260502023018 43 318 0.0 2.0 0.00 0.00 0.00 58 1019.8
20260502021535 44 318 0.0 2.0 0.00 0.00 0.00 58 1019.8
20260502020046 46 318 0.0 0.0 0.00 0.00 0.00 53 1019.6
20260502014504 46 318 0.0 0.0 0.00 0.00 0.00 51 1019.5
20260502013011 47 318 0.0 3.0 0.00 0.00 0.00 50 1019.4
20260502011528 48 318 1.0 3.0 0.00 0.00 0.00 46 1019.4
20260502010036 50 321 1.0 6.0 0.00 0.00 0.00 45 1019.3
20260502004543 50 325 3.0 9.0 0.00 0.00 0.00 43 1019.2
20260502003054 51 292 4.0 8.0 0.00 0.00 0.00 42 1019.2
20260502001601 52 271 4.0 10.0 0.00 0.00 0.00 41 1019.1
20260502000013 52 319 6.0 11.0 0.00 0.00 0.00 40 1019.2
20260501234540 52 329 3.0 9.0 0.00 0.00 0.00 39 1019.2
20260501233036 52 321 6.0 10.0 0.00 0.00 0.00 39 1019.2
20260501231555 53 343 5.0 11.0 0.00 0.00 0.00 40 1019.2
20260501230055 53 259 6.0 12.0 0.00 0.00 0.00 41 1019.2
20260501224505 53 307 6.0 10.0 0.00 0.07 0.00 41 1019.3
20260501223010 53 343 6.0 10.0 0.00 0.07 0.00 40 1019.4
20260501221521 53 296 7.0 13.0 0.00 0.07 0.00 42 1019.4
20260501220039 53 311 5.0 11.0 0.00 0.07 0.00 42 1019.5
20260501214557 53 298 4.0 8.0 0.00 0.28 0.00 44 1019.5
20260501213051 53 326 6.0 12.0 0.00 0.28 0.00 45 1019.5
20260501211550 53 360 6.0 11.0 0.00 0.28 0.00 45 1019.6
20260501210052 52 315 4.0 9.0 0.00 0.28 0.00 44 1019.8
20260501204505 53 290 7.0 13.0 0.00 0.28 0.00 45 1019.8
20260501203103 52 285 6.0 12.0 0.00 0.28 0.00 45 1019.9
20260501201502 52 288 7.0 12.0 0.00 0.28 0.00 46 1020.1
20260501200008 51 355 6.0 12.0 0.00 0.28 0.00 49 1020.1
20260501194516 50 192 2.0 11.0 0.00 0.28 0.00 43 1020.1
20260501193029 50 11 6.0 15.0 0.00 0.28 0.00 43 1020.3
20260501191530 50 321 6.0 14.0 0.00 0.28 0.00 50 1020.3
20260501190041 50 331 3.0 9.0 0.00 0.28 0.00 48 1020.2
20260501184545 49 315 6.0 13.0 0.00 0.28 0.00 51 1020.4
20260501183058 49 329 5.0 16.0 0.00 0.28 0.00 50 1020.4
20260501181600 48 305 6.0 11.0 0.00 0.28 0.00 53 1020.6
20260501180101 47 10 4.0 13.0 0.00 0.28 0.00 52 1020.6
20260501174612 47 311 5.0 12.0 0.00 0.28 0.00 54 1020.7
20260501173109 47 360 5.0 10.0 0.00 0.28 0.00 57 1020.8
20260501171524 46 19 5.0 12.0 0.00 0.28 0.00 56 1020.9
20260501170025 46 35 5.0 11.0 0.00 0.28 0.00 55 1021.0